Zurück zum Katalog

STARLINK-36226

AktivKommunikationVLEO
NORAD 67209·PAYLOAD·🇺🇸 United States

Gestartet Dec 17, 2025 von Vandenberg Space Force Base

Loading…

Nächste Überflüge (nächste 24 Stunden)

TLE

AktuellSource: CelesTrak SupGP

Epoche: Sep 15, 2026, 04:16 UTC

1 67209C 25304T   26258.17826389 -.00006938  00000+0 -58150-3 0  2582
2 67209  70.0009  56.8900 0003201 259.8181  82.5438 14.98328091    16

Verfolge STARLINK-36226 in Echtzeit mit AllMySat

Download on the App Store